Regional Weather Roundup
Issued by NWS

Home | Current Version | Previous Version | Text Only | Print | Product List | Glossary Off
Versions: 1 2 3 4 5 6 7 8 9 10 11 12 13 14 15 16 17 18 19 20 21 22 23 24 25 26 27 28 29 30 31 32 33 34 35 36 37 38 39 40 41 42 43 44 45 46 47 48 49 50

000
ASUS44 KMEG 201410
RWRTN
TENNESSEE HOURLY STATE WEATHER ROUNDUP
NATIONAL WEATHER SERVICE MEMPHIS TN
900 AM CDT SUN APR 20 2014

TNZ002-004-019-021-049-052-054-088>092-201500-
WEST TENNESSEE

CITY           SKY/WX    TMP DP  RH WIND       PRES   REMARKS
MEMPHIS INTL   MOSUNNY   66  46  48 S9        30.22R
NWS MEMPHIS      N/A     67 N/A N/A MISG        N/A
JACKSON        MOSUNNY   65  45  48 VRB3      30.23R
DYERSBURG      SUNNY     63  45  51 SE5       30.24R
UNION CITY     SUNNY     63  48  59 SE3       30.21S
PARIS          SUNNY     61  42  49 SE6       30.23S
LEXINGTON      SUNNY     61  48  63 CALM      30.23S
SAVANNAH       MOSUNNY   62  49  62 CALM      30.24F
$$

TNZ008-025-027-028-033-062-065-066-201500-
NORTH MIDDLE TENNESSEE

CITY           SKY/WX    TMP DP  RH WIND       PRES   REMARKS
NASHVILLE      MOSUNNY   62  43  49 CALM      30.24S
DICKSON        SUNNY     64  39  39 S7        30.23S
PORTLAND       SUNNY     55  41  58 CALM      30.23S
CLARKSVILLE    SUNNY     59  43  55 SE3       30.24S
SMYRNA         SUNNY     59  46  61 CALM      30.25S
MURFREESBORO   SUNNY     60  45  57 VRB3      30.24R
COOKEVILLE     SUNNY     63  46  55 S3        30.24S
LIVINGSTON     SUNNY     62  39  42 SW5       30.24S
GALLATIN       SUNNY     59  45  59 CALM      30.24S
CROSSVILLE     SUNNY     60  39  45 E6        30.26S
$$

TNZ061-075-076-078-094-096-097-201500-
SOUTH MIDDLE TENNESSEE

CITY           SKY/WX    TMP DP  RH WIND       PRES   REMARKS
LEWISBURG      SUNNY     59  49  69 CALM      30.24R
FAYETTEVILLE   SUNNY     59  47  64 SW7       30.25R
TULLAHOMA      SUNNY     63  46  55 SW6       30.26R
WINCHESTER     SUNNY     61  48  63 W3        30.25S
MCMINNVILLE    SUNNY     61  52  72 CALM      30.25S
COLUMBIA       SUNNY     63  52  67 CALM      30.23S
SHELBYVILLE    SUNNY     61  48  63 S3        30.25S
$$

TNZ017-018-042-046-047-201500-
NORTHEAST TENNESSEE

CITY           SKY/WX    TMP DP  RH WIND       PRES   REMARKS
TRI CITIES     MOSUNNY   59  38  45 E6        30.29S
ELIZABETHTON   SUNNY     57  36  44 CALM      30.29S
$$

TNZ012-013-036-069-073-074-201500-
CENTRAL EAST TENNESSEE

CITY           SKY/WX    TMP DP  RH WIND       PRES   REMARKS
KNOXVILLE      MOSUNNY   57  47  69 E5        30.25S
OAK RIDGE      SUNNY     60  46  59 CALM      30.27S
$$

TNZ083-085-099-201500-
SOUTHEAST TENNESSEE

CITY           SKY/WX    TMP DP  RH WIND       PRES   REMARKS
CHATTANOOGA    MOSUNNY   59  48  67 W3        30.27S
$$

SKY/WX REPORTED AS FAIR MEANS FEW OR NO CLOUDS BELOW
12 THOUSAND FEET.




USA.gov is the U.S. government's official web portal to all federal, state and local government web resources and services.